Current weather by "City, St" or "zip code"  
 

Current Conditions: Spokane, Felts Field, WA

Fair


59.0 F

Last Updated on Oct 29 2020, 3:53 pm PDT
Humidity: 54%
Wind Speed: S 6.9 mph
Barometer 30.07 in
Dewpoint: 42.1 F
Visibility: 10.00 mi
Precip: --
Heat Index: NA
Wind Chill: 58 F
Current conditions at:

Spokane, Felts Field, WA (KSFF)

Lat: 47.68556 Lon: 117.32028

Local Radar Image active severe weather and emergency alerts image image weather storm and storm spotter reports image weather observation monitoring service image
Local
Radar
Active
Alerts
Storm Reports Obs
Monitoring

Sign-up For Email & Text Message Weather Alert Notification Services



Advertise Here

Observation History for Spokane, Felts Field, WA


Time Wind
(mph)
Vis
(mi)
Weather Precip (in) Temperature (F) Relative
Humidity
Wind
Chill
(F)
Heat
Index
(F)
Pressure
Air Dwpt altimeter
(in)
sea level
(mb)
Rmks
3:53 pm PDT S 6.9 10.00 Fair -- 59.0 42.1 54% 58 NA 30.07 1018.5
2:53 pm PDT S 8.1 10.00 Fair -- 61.0 42.1 50% 60 NA 30.07 1018.4
1:53 pm PDT S 9.2 10.00 Fair -- 60.0 42.1 52% 59 NA 30.09 1019.2
12:53 pm PDT N 0.0 10.00 Fair -- 56.0 39.0 53% NA NA 30.11 1020.2
11:53 am PDT N 0.0 10.00 Fair -- 52.0 39.0 61% NA NA 30.13 1020.8
10:53 am PDT E 3.5 10.00 Fair -- 48.0 37.0 66% NA NA 30.14 1021.2
9:53 am PDT S 3.5 9.00 Fair -- 41.0 35.1 79% NA NA 30.14 1021.6
8:53 am PDT SW 3.5 7.00 A Few Clouds -- 35.0 33.1 93% NA NA 30.12 1021.3
7:53 am PDT N 0.0 10.00 A Few Clouds -- 33.0 32.0 96% NA NA 30.12 1021.2
6:53 am PDT N 0.0 10.00 A Few Clouds -- 34.0 30.9 89% NA NA 30.12 1021.1
5:53 am PDT N 0.0 5.00 Fog/Mist -- 35.0 33.1 93% NA NA 30.11 1020.6
4:53 am PDT N 0.0 9.00 Fair -- 36.0 33.1 89% NA NA 30.10 1019.9
3:53 am PDT N 0.0 8.00 Fair -- 36.0 33.1 89% NA NA 30.10 1019.8
2:53 am PDT N 0.0 9.00 Fair -- 37.0 34.0 89% NA NA 30.11 1020.0
1:53 am PDT N 0.0 8.00 Fair -- 36.0 34.0 93% NA NA 30.11 1020.4
12:53 am PDT N 0.0 9.00 Fair -- 36.0 33.1 89% NA NA 30.12 1020.8
10:53 pm PDT N 0.0 10.00 Fair -- 37.0 35.1 93% NA NA 30.13 1021.5
9:53 pm PDT N 0.0 10.00 Fair -- 38.0 35.1 89% NA NA 30.13 1021.7
8:53 pm PDT N 0.0 10.00 Fair -- 38.0 34.0 86% NA NA 30.13 1021.7
7:53 pm PDT N 0.0 10.00 Fair -- 40.0 35.1 83% NA NA 30.14 1021.9
6:53 pm PDT N 0.0 10.00 Fair -- 42.0 36.0 79% NA NA 30.14 1021.9
5:53 pm PDT N 0.0 10.00 Fair -- 43.0 36.0 76% NA NA 30.13 1021.6
4:53 pm PDT N 0.0 10.00 Fair -- 53.0 37.0 55% NA NA 30.15 1021.8

Regional Weather Observation


Spokane, Felts Field, WA (KSFF)

Fair
59.0 F

Spokane, Spokane International Airport, WA (KGEG)

A Few Clouds
59.0 F

Fairchild Air Force Base, WA (KSKA)

Fair
60.0 F

Coeur dAlene Airport - Pappy Boyington Field, ID (KCOE)

Fair
59.0 F

Sandpoint, Sandpoint Airport, ID (KSZT)

Fair
59.0 F

Boundary County Airport, ID (K65S)

Fair
57.0 F